Data supplied by UK-AIR on 18/3/2022
All Data GMT hour ending 
Status: R =Ratified P=Provisional,P*=As supplied
,,Christchurch Barrack Road,,,,,,,,,,,,,,,,,,,,,,,
Date,time,"Nitric oxide",status,unit,"Nitrogen dioxide",status,unit,"Nitrogen oxides as nitrogen dioxide",status,unit,"PM<sub>2.5</sub> particulate matter (Hourly measured)",status,unit
 
01-01-2021,01:00,22.40142,R,ugm-3,29.17533,R,ugm-3,63.52370,R,ugm-3,90.000,R,ugm-3 (BAM)
01-01-2021,02:00,14.51785,R,ugm-3,27.56082,R,ugm-3,49.82120,R,ugm-3,48.000,R,ugm-3 (BAM)
01-01-2021,03:00,11.04993,R,ugm-3,25.06247,R,ugm-3,42.00546,R,ugm-3,49.000,R,ugm-3 (BAM)
01-01-2021,04:00,4.62029,R,ugm-3,20.35389,R,ugm-3,27.43825,R,ugm-3,35.000,R,ugm-3 (BAM)
01-01-2021,05:00,8.75594,R,ugm-3,20.39829,R,ugm-3,33.82387,R,ugm-3,36.000,R,ugm-3 (BAM)
01-01-2021,06:00,7.33431,R,ugm-3,23.02708,R,ugm-3,34.27286,R,ugm-3,33.000,R,ugm-3 (BAM)
01-01-2021,07:00,3.36021,R,ugm-3,21.58756,R,ugm-3,26.73982,R,ugm-3,27.000,R,ugm-3 (BAM)
01-01-2021,08:00,7.20507,R,ugm-3,25.27064,R,ugm-3,36.31826,R,ugm-3,27.000,R,ugm-3 (BAM)
01-01-2021,09:00,16.34873,R,ugm-3,26.96519,R,ugm-3,52.03289,R,ugm-3,36.000,R,ugm-3 (BAM)
01-01-2021,10:00,17.15648,R,ugm-3,25.72667,R,ugm-3,52.03289,R,ugm-3,35.000,R,ugm-3 (BAM)
01-01-2021,11:00,27.72176,R,ugm-3,31.22794,R,ugm-3,73.73405,R,ugm-3,29.000,R,ugm-3 (BAM)
01-01-2021,12:00,32.60053,R,ugm-3,31.47986,R,ugm-3,81.46665,R,ugm-3,34.000,R,ugm-3 (BAM)
01-01-2021,13:00,22.77837,R,ugm-3,29.82791,R,ugm-3,64.75426,R,ugm-3,31.000,R,ugm-3 (BAM)
01-01-2021,14:00,26.94633,R,ugm-3,30.52119,R,ugm-3,71.83832,R,ugm-3,37.000,R,ugm-3 (BAM)
01-01-2021,15:00,22.48758,R,ugm-3,27.13086,R,ugm-3,61.61134,R,ugm-3,33.000,R,ugm-3 (BAM)
01-01-2021,16:00,22.97223,R,ugm-3,32.37427,R,ugm-3,67.59786,R,ugm-3,30.000,R,ugm-3 (BAM)
01-01-2021,17:00,26.55861,R,ugm-3,39.44693,R,ugm-3,80.16957,R,ugm-3,40.000,R,ugm-3 (BAM)
01-01-2021,18:00,18.19039,R,ugm-3,33.17103,R,ugm-3,61.06257,R,ugm-3,41.000,R,ugm-3 (BAM)
01-01-2021,19:00,9.24059,R,ugm-3,25.44215,R,ugm-3,39.61085,R,ugm-3,34.000,R,ugm-3 (BAM)
01-01-2021,20:00,4.45875,R,ugm-3,17.60834,R,ugm-3,24.44498,R,ugm-3,24.000,R,ugm-3 (BAM)
01-01-2021,21:00,4.16796,R,ugm-3,18.05421,R,ugm-3,24.44498,R,ugm-3,23.000,R,ugm-3 (BAM)
01-01-2021,22:00,2.19706,R,ugm-3,14.64069,R,ugm-3,18.00947,R,ugm-3,19.000,R,ugm-3 (BAM)
01-01-2021,23:00,2.52016,R,ugm-3,13.04775,R,ugm-3,16.91194,R,ugm-3,19.000,R,ugm-3 (BAM)
01-01-2021,24:00,2.16475,R,ugm-3,10.69921,R,ugm-3,14.01845,R,ugm-3,20.000,R,ugm-3 (BAM)
02-01-2021,01:00,1.03374,R,ugm-3,8.59582,R,ugm-3,10.18086,R,ugm-3,13.000,R,ugm-3 (BAM)
02-01-2021,02:00,0.60301,R,ugm-3,7.72580,R,ugm-3,8.65041,R,ugm-3,14.000,R,ugm-3 (BAM)
02-01-2021,03:00,0.64609,R,ugm-3,6.19584,R,ugm-3,7.18649,R,ugm-3,14.000,R,ugm-3 (BAM)
02-01-2021,04:00,0.45226,R,ugm-3,5.39510,R,ugm-3,6.08856,R,ugm-3,12.000,R,ugm-3 (BAM)
02-01-2021,05:00,0.96913,R,ugm-3,5.05174,R,ugm-3,6.53771,R,ugm-3,10.000,R,ugm-3 (BAM)
02-01-2021,06:00,1.19526,R,ugm-3,6.40182,R,ugm-3,8.23452,R,ugm-3,9.000,R,ugm-3 (BAM)
02-01-2021,07:00,3.03660,R,ugm-3,9.06815,R,ugm-3,13.72420,R,ugm-3,10.000,R,ugm-3 (BAM)
02-01-2021,08:00,4.42569,R,ugm-3,9.33374,R,ugm-3,16.11970,R,ugm-3,12.000,R,ugm-3 (BAM)
02-01-2021,09:00,6.23473,R,ugm-3,14.44510,R,ugm-3,24.00488,R,ugm-3,9.000,R,ugm-3 (BAM)
02-01-2021,10:00,20.57782,R,ugm-3,28.63465,R,ugm-3,60.18687,R,ugm-3,12.000,R,ugm-3 (BAM)
02-01-2021,11:00,14.85997,R,ugm-3,18.53737,R,ugm-3,41.32233,R,ugm-3,11.000,R,ugm-3 (BAM)
02-01-2021,12:00,12.56636,R,ugm-3,14.81778,R,ugm-3,34.08593,R,ugm-3,8.000,R,ugm-3 (BAM)
02-01-2021,13:00,15.99062,R,ugm-3,19.79810,R,ugm-3,44.31670,R,ugm-3,9.000,R,ugm-3 (BAM)
02-01-2021,14:00,14.85997,R,ugm-3,22.38014,R,ugm-3,45.16511,R,ugm-3,7.000,R,ugm-3 (BAM)
02-01-2021,15:00,20.86856,R,ugm-3,28.68792,R,ugm-3,60.68593,R,ugm-3,14.000,R,ugm-3 (BAM)
02-01-2021,16:00,41.12334,R,ugm-3,38.50420,R,ugm-3,101.55910,R,ugm-3,14.000,R,ugm-3 (BAM)
02-01-2021,17:00,40.80030,R,ugm-3,50.37813,R,ugm-3,112.93772,R,ugm-3,20.000,R,ugm-3 (BAM)
02-01-2021,18:00,29.36458,R,ugm-3,42.31077,R,ugm-3,87.33584,R,ugm-3,20.000,R,ugm-3 (BAM)
02-01-2021,19:00,19.64100,R,ugm-3,42.84708,R,ugm-3,72.96285,R,ugm-3,25.000,R,ugm-3 (BAM)
02-01-2021,20:00,8.52833,R,ugm-3,17.41610,R,ugm-3,30.49268,R,ugm-3,14.000,R,ugm-3 (BAM)
02-01-2021,21:00,9.17441,R,ugm-3,19.27010,R,ugm-3,33.33734,R,ugm-3,17.000,R,ugm-3 (BAM)
02-01-2021,22:00,5.33021,R,ugm-3,11.83952,R,ugm-3,20.01238,R,ugm-3,17.000,R,ugm-3 (BAM)
02-01-2021,23:00,6.65468,R,ugm-3,16.09686,R,ugm-3,26.30056,R,ugm-3,19.000,R,ugm-3 (BAM)
02-01-2021,24:00,2.22900,R,ugm-3,8.95899,R,ugm-3,12.37674,R,ugm-3,15.000,R,ugm-3 (BAM)
03-01-2021,01:00,1.42115,R,ugm-3,5.67575,R,ugm-3,7.85481,R,ugm-3,13.000,R,ugm-3 (BAM)
03-01-2021,02:00,1.16276,R,ugm-3,9.64988,R,ugm-3,11.43275,R,ugm-3,18.000,R,ugm-3 (BAM)
03-01-2021,03:00,0.64598,R,ugm-3,8.04588,R,ugm-3,9.03636,R,ugm-3,13.000,R,ugm-3 (BAM)
03-01-2021,04:00,0.61368,R,ugm-3,8.34503,R,ugm-3,9.28599,R,ugm-3,16.000,R,ugm-3 (BAM)
03-01-2021,05:00,1.00126,R,ugm-3,4.30594,R,ugm-3,5.84119,R,ugm-3,10.000,R,ugm-3 (BAM)
03-01-2021,06:00,0.38759,R,ugm-3,5.54645,R,ugm-3,6.14073,R,ugm-3,9.000,R,ugm-3 (BAM)
03-01-2021,07:00,1.51804,R,ugm-3,6.35926,R,ugm-3,8.68689,R,ugm-3,12.000,R,ugm-3 (BAM)
03-01-2021,08:00,2.58390,R,ugm-3,6.02300,R,ugm-3,9.98493,R,ugm-3,12.000,R,ugm-3 (BAM)
03-01-2021,09:00,3.32678,R,ugm-3,7.87943,R,ugm-3,12.98041,R,ugm-3,12.000,R,ugm-3 (BAM)
03-01-2021,10:00,5.13551,R,ugm-3,10.09854,R,ugm-3,17.97288,R,ugm-3,12.000,R,ugm-3 (BAM)
03-01-2021,11:00,7.49332,R,ugm-3,10.52718,R,ugm-3,22.01678,R,ugm-3,14.000,R,ugm-3 (BAM)
03-01-2021,12:00,11.01389,R,ugm-3,14.06556,R,ugm-3,30.95329,R,ugm-3,10.000,R,ugm-3 (BAM)
03-01-2021,13:00,11.36918,R,ugm-3,16.21673,R,ugm-3,33.64923,R,ugm-3,7.000,R,ugm-3 (BAM)
03-01-2021,14:00,15.05124,R,ugm-3,17.26088,R,ugm-3,40.33913,R,ugm-3,7.000,R,ugm-3 (BAM)
03-01-2021,15:00,15.76181,R,ugm-3,14.92324,R,ugm-3,39.09101,R,ugm-3,12.000,R,ugm-3 (BAM)
03-01-2021,16:00,14.59906,R,ugm-3,14.85889,R,ugm-3,37.24380,R,ugm-3,12.000,R,ugm-3 (BAM)
03-01-2021,17:00,14.34067,R,ugm-3,19.54861,R,ugm-3,41.53732,R,ugm-3,10.000,R,ugm-3 (BAM)
03-01-2021,18:00,11.23998,R,ugm-3,19.36038,R,ugm-3,36.59478,R,ugm-3,12.000,R,ugm-3 (BAM)
03-01-2021,19:00,5.91068,R,ugm-3,13.95236,R,ugm-3,23.01527,R,ugm-3,9.000,R,ugm-3 (BAM)
03-01-2021,20:00,4.26344,R,ugm-3,10.63690,R,ugm-3,17.17409,R,ugm-3,10.000,R,ugm-3 (BAM)
03-01-2021,21:00,3.13298,R,ugm-3,9.32484,R,ugm-3,14.12868,R,ugm-3,12.000,R,ugm-3 (BAM)
03-01-2021,22:00,2.81000,R,ugm-3,11.16805,R,ugm-3,15.47665,R,ugm-3,10.000,R,ugm-3 (BAM)
03-01-2021,23:00,2.06712,R,ugm-3,9.91072,R,ugm-3,13.08026,R,ugm-3,9.000,R,ugm-3 (BAM)
03-01-2021,24:00,1.74414,R,ugm-3,8.15935,R,ugm-3,10.83365,R,ugm-3,14.000,R,ugm-3 (BAM)
04-01-2021,01:00,0.64587,R,ugm-3,6.53445,R,ugm-3,7.52477,R,ugm-3,13.000,R,ugm-3 (BAM)
04-01-2021,02:00,0.74275,R,ugm-3,6.05295,R,ugm-3,7.19181,R,ugm-3,17.000,R,ugm-3 (BAM)
04-01-2021,03:00,0.74275,R,ugm-3,5.30380,R,ugm-3,6.44267,R,ugm-3,11.000,R,ugm-3 (BAM)
04-01-2021,04:00,0.29064,R,ugm-3,3.74958,R,ugm-3,4.19522,R,ugm-3,8.000,R,ugm-3 (BAM)
04-01-2021,05:00,1.32403,R,ugm-3,4.81206,R,ugm-3,6.84221,R,ugm-3,7.000,R,ugm-3 (BAM)
04-01-2021,06:00,1.96989,R,ugm-3,5.02039,R,ugm-3,8.04084,R,ugm-3,7.000,R,ugm-3 (BAM)
04-01-2021,07:00,11.69018,R,ugm-3,14.93789,R,ugm-3,32.86259,R,ugm-3,11.000,R,ugm-3 (BAM)
04-01-2021,08:00,16.53418,R,ugm-3,27.08824,R,ugm-3,52.44030,R,ugm-3,10.000,R,ugm-3 (BAM)
04-01-2021,09:00,19.79581,R,ugm-3,27.48100,R,ugm-3,57.83415,R,ugm-3,8.000,R,ugm-3 (BAM)
04-01-2021,10:00,22.41157,R,ugm-3,21.62233,R,ugm-3,55.98626,R,ugm-3,10.000,R,ugm-3 (BAM)
04-01-2021,11:00,28.96711,R,ugm-3,26.25392,R,ugm-3,70.66954,R,ugm-3,8.000,R,ugm-3 (BAM)
04-01-2021,12:00,42.98242,R,ugm-3,30.63463,R,ugm-3,96.54008,R,ugm-3,5.000,R,ugm-3 (BAM)
04-01-2021,13:00,33.03607,R,ugm-3,27.80607,R,ugm-3,78.46067,R,ugm-3,10.000,R,ugm-3 (BAM)
04-01-2021,14:00,48.95668,R,ugm-3,42.45034,R,ugm-3,117.51620,R,ugm-3,11.000,R,ugm-3 (BAM)
04-01-2021,15:00,43.20847,R,ugm-3,25.39360,R,ugm-3,91.64566,R,ugm-3,8.000,R,ugm-3 (BAM)
04-01-2021,16:00,58.83844,R,ugm-3,40.48351,R,ugm-3,130.70119,R,ugm-3,8.000,R,ugm-3 (BAM)
04-01-2021,17:00,60.32393,R,ugm-3,27.36813,R,ugm-3,119.86353,R,ugm-3,9.000,R,ugm-3 (BAM)
04-01-2021,18:00,33.22983,R,ugm-3,28.45789,R,ugm-3,79.40959,R,ugm-3,8.000,R,ugm-3 (BAM)
04-01-2021,19:00,6.29720,R,ugm-3,15.16617,R,ugm-3,24.82174,R,ugm-3,10.000,R,ugm-3 (BAM)
04-01-2021,20:00,5.29611,R,ugm-3,12.45599,R,ugm-3,20.57657,R,ugm-3,11.000,R,ugm-3 (BAM)
04-01-2021,21:00,2.55117,R,ugm-3,7.57518,R,ugm-3,11.48692,R,ugm-3,10.000,R,ugm-3 (BAM)
04-01-2021,22:00,3.03557,R,ugm-3,6.33301,R,ugm-3,10.98749,R,ugm-3,7.000,R,ugm-3 (BAM)
04-01-2021,23:00,2.42200,R,ugm-3,6.72444,R,ugm-3,10.43812,R,ugm-3,13.000,R,ugm-3 (BAM)
04-01-2021,24:00,2.16365,R,ugm-3,6.47130,R,ugm-3,9.78886,R,ugm-3,12.000,R,ugm-3 (BAM)
05-01-2021,01:00,0.68881,R,ugm-3,4.07324,R,ugm-3,5.12939,R,ugm-3,7.000,R,ugm-3 (BAM)
05-01-2021,02:00,0.90406,R,ugm-3,3.01042,R,ugm-3,4.39662,R,ugm-3,5.000,R,ugm-3 (BAM)
05-01-2021,03:00,0.77491,R,ugm-3,2.30914,R,ugm-3,3.49731,R,ugm-3,9.000,R,ugm-3 (BAM)
05-01-2021,04:00,0.64576,R,ugm-3,2.70701,R,ugm-3,3.69716,R,ugm-3,8.000,R,ugm-3 (BAM)
05-01-2021,05:00,1.09779,R,ugm-3,2.76333,R,ugm-3,4.44658,R,ugm-3,6.000,R,ugm-3 (BAM)
05-01-2021,06:00,2.55074,R,ugm-3,4.13274,R,ugm-3,8.04382,R,ugm-3,11.000,R,ugm-3 (BAM)
05-01-2021,07:00,5.16606,R,ugm-3,8.26639,R,ugm-3,16.18756,R,ugm-3,9.000,R,ugm-3 (BAM)
05-01-2021,08:00,14.88470,R,ugm-3,18.84510,R,ugm-3,41.66798,R,ugm-3,7.000,R,ugm-3 (BAM)
05-01-2021,09:00,13.23802,R,ugm-3,13.32615,R,ugm-3,33.62416,R,ugm-3,5.000,R,ugm-3 (BAM)
05-01-2021,10:00,15.01385,R,ugm-3,18.24737,R,ugm-3,41.26829,R,ugm-3,6.000,R,ugm-3 (BAM)
05-01-2021,11:00,15.46588,R,ugm-3,20.30216,R,ugm-3,44.01618,R,ugm-3,9.000,R,ugm-3 (BAM)
05-01-2021,12:00,13.25954,R,ugm-3,13.30980,R,ugm-3,33.64082,R,ugm-3,,,
05-01-2021,13:00,13.36717,R,ugm-3,11.57931,R,ugm-3,32.07535,R,ugm-3,9.000,R,ugm-3 (BAM)
05-01-2021,14:00,9.84779,R,ugm-3,12.02941,R,ugm-3,27.12915,R,ugm-3,7.000,R,ugm-3 (BAM)
05-01-2021,15:00,14.01293,R,ugm-3,15.13567,R,ugm-3,36.62186,R,ugm-3,6.000,R,ugm-3 (BAM)
05-01-2021,16:00,9.71864,R,ugm-3,14.37579,R,ugm-3,29.27750,R,ugm-3,6.000,R,ugm-3 (BAM)
05-01-2021,17:00,12.88285,R,ugm-3,14.62016,R,ugm-3,34.37359,R,ugm-3,4.000,R,ugm-3 (BAM)
05-01-2021,18:00,12.52769,R,ugm-3,14.36535,R,ugm-3,33.57420,R,ugm-3,7.000,R,ugm-3 (BAM)
05-01-2021,19:00,7.39392,R,ugm-3,10.44608,R,ugm-3,21.78326,R,ugm-3,6.000,R,ugm-3 (BAM)
05-01-2021,20:00,4.42344,R,ugm-3,9.90467,R,ugm-3,16.68718,R,ugm-3,3.000,R,ugm-3 (BAM)
05-01-2021,21:00,3.42251,R,ugm-3,8.74147,R,ugm-3,13.98925,R,ugm-3,5.000,R,ugm-3 (BAM)
05-01-2021,22:00,2.51845,R,ugm-3,8.77871,R,ugm-3,12.64029,R,ugm-3,6.000,R,ugm-3 (BAM)
05-01-2021,23:00,3.13192,R,ugm-3,8.58750,R,ugm-3,13.38971,R,ugm-3,3.000,R,ugm-3 (BAM)
05-01-2021,24:00,2.03413,R,ugm-3,5.92409,R,ugm-3,9.04305,R,ugm-3,9.000,R,ugm-3 (BAM)
06-01-2021,01:00,1.37216,R,ugm-3,5.54023,R,ugm-3,7.64418,R,ugm-3,6.000,R,ugm-3 (BAM)
06-01-2021,02:00,2.41200,R,ugm-3,5.47467,R,ugm-3,9.17302,R,ugm-3,7.000,R,ugm-3 (BAM)
06-01-2021,03:00,0.64320,R,ugm-3,3.94926,R,ugm-3,4.93548,R,ugm-3,5.000,R,ugm-3 (BAM)
06-01-2021,04:00,0.67536,R,ugm-3,3.70053,R,ugm-3,4.73607,R,ugm-3,4.000,R,ugm-3 (BAM)
06-01-2021,05:00,1.83312,R,ugm-3,4.81682,R,ugm-3,7.62757,R,ugm-3,4.000,R,ugm-3 (BAM)
06-01-2021,06:00,3.85921,R,ugm-3,6.34656,R,ugm-3,12.26393,R,ugm-3,4.000,R,ugm-3 (BAM)
06-01-2021,07:00,8.16865,R,ugm-3,10.05849,R,ugm-3,22.58358,R,ugm-3,9.000,R,ugm-3 (BAM)
06-01-2021,08:00,15.95138,R,ugm-3,15.37440,R,ugm-3,39.83284,R,ugm-3,6.000,R,ugm-3 (BAM)
06-01-2021,09:00,17.88099,R,ugm-3,21.43917,R,ugm-3,48.85630,R,ugm-3,5.000,R,ugm-3 (BAM)
06-01-2021,10:00,15.43682,R,ugm-3,16.56221,R,ugm-3,40.23167,R,ugm-3,5.000,R,ugm-3 (BAM)
06-01-2021,11:00,22.02963,R,ugm-3,21.30968,R,ugm-3,55.08797,R,ugm-3,6.000,R,ugm-3 (BAM)
06-01-2021,12:00,21.83667,R,ugm-3,22.65247,R,ugm-3,56.13489,R,ugm-3,5.000,R,ugm-3 (BAM)
06-01-2021,13:00,24.69891,R,ugm-3,23.09953,R,ugm-3,60.97067,R,ugm-3,7.000,R,ugm-3 (BAM)
06-01-2021,14:00,29.84452,R,ugm-3,25.62906,R,ugm-3,71.39002,R,ugm-3,14.000,R,ugm-3 (BAM)
06-01-2021,15:00,22.54419,R,ugm-3,26.45325,R,ugm-3,61.02052,R,ugm-3,9.000,R,ugm-3 (BAM)
06-01-2021,16:00,30.55204,R,ugm-3,31.92251,R,ugm-3,78.76832,R,ugm-3,12.000,R,ugm-3 (BAM)
06-01-2021,17:00,49.55863,R,ugm-3,49.59180,R,ugm-3,125.58064,R,ugm-3,12.000,R,ugm-3 (BAM)
06-01-2021,18:00,38.49557,R,ugm-3,39.98307,R,ugm-3,99.00879,R,ugm-3,18.000,R,ugm-3 (BAM)
06-01-2021,19:00,17.88099,R,ugm-3,33.05501,R,ugm-3,60.47214,R,ugm-3,19.000,R,ugm-3 (BAM)
06-01-2021,20:00,15.66194,R,ugm-3,31.67157,R,ugm-3,55.68621,R,ugm-3,25.000,R,ugm-3 (BAM)
06-01-2021,21:00,9.03697,R,ugm-3,29.91476,R,ugm-3,43.77126,R,ugm-3,22.000,R,ugm-3 (BAM)
06-01-2021,22:00,6.94657,R,ugm-3,25.04375,R,ugm-3,35.69501,R,ugm-3,17.000,R,ugm-3 (BAM)
06-01-2021,23:00,7.33249,R,ugm-3,23.85378,R,ugm-3,35.09677,R,ugm-3,17.000,R,ugm-3 (BAM)
06-01-2021,24:00,5.30641,R,ugm-3,21.92520,R,ugm-3,30.06158,R,ugm-3,20.000,R,ugm-3 (BAM)
07-01-2021,01:00,2.47716,R,ugm-3,18.68654,R,ugm-3,22.48480,R,ugm-3,20.000,R,ugm-3 (BAM)
07-01-2021,02:00,3.03239,R,ugm-3,20.81991,R,ugm-3,25.46951,R,ugm-3,18.000,R,ugm-3 (BAM)
07-01-2021,03:00,3.68371,R,ugm-3,22.45772,R,ugm-3,28.10600,R,ugm-3,22.000,R,ugm-3 (BAM)
07-01-2021,04:00,1.21723,R,ugm-3,18.97682,R,ugm-3,20.84321,R,ugm-3,20.000,R,ugm-3 (BAM)
07-01-2021,05:00,1.53755,R,ugm-3,17.64000,R,ugm-3,19.99754,R,ugm-3,16.000,R,ugm-3 (BAM)
07-01-2021,06:00,3.71574,R,ugm-3,17.58333,R,ugm-3,23.28072,R,ugm-3,17.000,R,ugm-3 (BAM)
07-01-2021,07:00,9.64170,R,ugm-3,20.83377,R,ugm-3,35.61751,R,ugm-3,15.000,R,ugm-3 (BAM)
07-01-2021,08:00,17.74586,R,ugm-3,25.96760,R,ugm-3,53.17754,R,ugm-3,13.000,R,ugm-3 (BAM)
07-01-2021,09:00,25.85002,R,ugm-3,33.43945,R,ugm-3,73.07559,R,ugm-3,16.000,R,ugm-3 (BAM)
07-01-2021,10:00,24.28044,R,ugm-3,35.99534,R,ugm-3,73.22483,R,ugm-3,18.000,R,ugm-3 (BAM)
07-01-2021,11:00,22.77492,R,ugm-3,26.81264,R,ugm-3,61.73370,R,ugm-3,14.000,R,ugm-3 (BAM)
07-01-2021,12:00,29.11730,R,ugm-3,33.10572,R,ugm-3,77.75163,R,ugm-3,16.000,R,ugm-3 (BAM)
07-01-2021,13:00,25.04921,R,ugm-3,30.33951,R,ugm-3,68.74777,R,ugm-3,16.000,R,ugm-3 (BAM)
07-01-2021,14:00,33.18540,R,ugm-3,37.16531,R,ugm-3,88.04888,R,ugm-3,21.000,R,ugm-3 (BAM)
07-01-2021,15:00,32.32053,R,ugm-3,35.65595,R,ugm-3,85.21340,R,ugm-3,27.000,R,ugm-3 (BAM)
07-01-2021,16:00,33.02524,R,ugm-3,36.01802,R,ugm-3,86.65601,R,ugm-3,23.000,R,ugm-3 (BAM)
07-01-2021,17:00,34.43466,R,ugm-3,44.55215,R,ugm-3,97.35122,R,ugm-3,23.000,R,ugm-3 (BAM)
07-01-2021,18:00,32.09630,R,ugm-3,46.64522,R,ugm-3,95.85886,R,ugm-3,28.000,R,ugm-3 (BAM)
07-01-2021,19:00,37.92617,R,ugm-3,47.05830,R,ugm-3,105.21095,R,ugm-3,28.000,R,ugm-3 (BAM)
07-01-2021,20:00,46.28658,R,ugm-3,45.38208,R,ugm-3,116.35385,R,ugm-3,60.000,R,ugm-3 (BAM)
07-01-2021,21:00,25.97814,R,ugm-3,44.53514,R,ugm-3,84.36774,R,ugm-3,46.000,R,ugm-3 (BAM)
07-01-2021,22:00,14.15825,R,ugm-3,35.34865,R,ugm-3,57.05766,R,ugm-3,27.000,R,ugm-3 (BAM)
07-01-2021,23:00,15.59970,R,ugm-3,34.03387,R,ugm-3,57.95307,R,ugm-3,38.000,R,ugm-3 (BAM)
07-01-2021,24:00,16.27238,R,ugm-3,29.52029,R,ugm-3,54.47092,R,ugm-3,30.000,R,ugm-3 (BAM)
08-01-2021,01:00,13.31478,R,ugm-3,28.89026,R,ugm-3,49.30597,R,ugm-3,32.000,R,ugm-3 (BAM)
08-01-2021,02:00,12.76177,R,ugm-3,25.65143,R,ugm-3,45.21920,R,ugm-3,39.000,R,ugm-3 (BAM)
08-01-2021,03:00,6.63612,R,ugm-3,23.28002,R,ugm-3,33.45526,R,ugm-3,38.000,R,ugm-3 (BAM)
08-01-2021,04:00,15.31413,R,ugm-3,25.65918,R,ugm-3,49.14052,R,ugm-3,36.000,R,ugm-3 (BAM)
08-01-2021,05:00,17.96220,R,ugm-3,24.22963,R,ugm-3,51.77127,R,ugm-3,36.000,R,ugm-3 (BAM)
08-01-2021,06:00,21.75882,R,ugm-3,24.36464,R,ugm-3,57.72770,R,ugm-3,37.000,R,ugm-3 (BAM)
08-01-2021,07:00,55.57752,R,ugm-3,36.39270,R,ugm-3,121.61037,R,ugm-3,34.000,R,ugm-3 (BAM)
08-01-2021,08:00,69.00929,R,ugm-3,42.75044,R,ugm-3,148.56320,R,ugm-3,30.000,R,ugm-3 (BAM)
08-01-2021,09:00,94.21379,R,ugm-3,44.35959,R,ugm-3,188.81872,R,ugm-3,35.000,R,ugm-3 (BAM)
08-01-2021,10:00,43.99621,R,ugm-3,33.70006,R,ugm-3,101.15998,R,ugm-3,21.000,R,ugm-3 (BAM)
08-01-2021,11:00,54.17373,R,ugm-3,42.76429,R,ugm-3,125.82951,R,ugm-3,24.000,R,ugm-3 (BAM)
08-01-2021,12:00,43.77288,R,ugm-3,37.36817,R,ugm-3,104.48565,R,ugm-3,25.000,R,ugm-3 (BAM)
08-01-2021,13:00,46.70809,R,ugm-3,36.54071,R,ugm-3,108.15878,R,ugm-3,23.000,R,ugm-3 (BAM)
08-01-2021,14:00,37.80675,R,ugm-3,34.70252,R,ugm-3,92.67207,R,ugm-3,24.000,R,ugm-3 (BAM)
08-01-2021,15:00,30.62826,R,ugm-3,36.52658,R,ugm-3,83.48924,R,ugm-3,27.000,R,ugm-3 (BAM)
08-01-2021,16:00,23.70499,R,ugm-3,33.34304,R,ugm-3,69.69019,R,ugm-3,25.000,R,ugm-3 (BAM)
08-01-2021,17:00,39.91244,R,ugm-3,39.56465,R,ugm-3,100.76288,R,ugm-3,27.000,R,ugm-3 (BAM)
08-01-2021,18:00,61.03318,R,ugm-3,50.21516,R,ugm-3,143.79806,R,ugm-3,33.000,R,ugm-3 (BAM)
08-01-2021,19:00,35.03107,R,ugm-3,42.73092,R,ugm-3,96.44447,R,ugm-3,37.000,R,ugm-3 (BAM)
08-01-2021,20:00,18.24934,R,ugm-3,47.21796,R,ugm-3,75.19988,R,ugm-3,33.000,R,ugm-3 (BAM)
08-01-2021,21:00,13.91033,R,ugm-3,49.50296,R,ugm-3,70.83184,R,ugm-3,36.000,R,ugm-3 (BAM)
08-01-2021,22:00,18.47267,R,ugm-3,48.76173,R,ugm-3,77.08609,R,ugm-3,39.000,R,ugm-3 (BAM)
08-01-2021,23:00,10.81560,R,ugm-3,49.58228,R,ugm-3,66.16597,R,ugm-3,32.000,R,ugm-3 (BAM)
08-01-2021,24:00,5.20042,R,ugm-3,40.57101,R,ugm-3,48.54488,R,ugm-3,29.000,R,ugm-3 (BAM)
09-01-2021,01:00,1.99134,R,ugm-3,29.43745,R,ugm-3,32.49079,R,ugm-3,26.000,R,ugm-3 (BAM)
09-01-2021,02:00,1.31343,R,ugm-3,20.04285,R,ugm-3,22.05676,R,ugm-3,17.000,R,ugm-3 (BAM)
09-01-2021,03:00,1.62061,R,ugm-3,15.49400,R,ugm-3,17.97890,R,ugm-3,25.000,R,ugm-3 (BAM)
09-01-2021,04:00,1.04863,R,ugm-3,12.26015,R,ugm-3,13.86802,R,ugm-3,21.000,R,ugm-3 (BAM)
09-01-2021,05:00,1.49350,R,ugm-3,11.33038,R,ugm-3,13.62038,R,ugm-3,17.000,R,ugm-3 (BAM)
09-01-2021,06:00,2.12903,R,ugm-3,12.18846,R,ugm-3,15.45294,R,ugm-3,18.000,R,ugm-3 (BAM)
09-01-2021,07:00,3.65431,R,ugm-3,14.40637,R,ugm-3,20.00957,R,ugm-3,20.000,R,ugm-3 (BAM)
09-01-2021,08:00,7.59461,R,ugm-3,19.16191,R,ugm-3,30.80682,R,ugm-3,14.000,R,ugm-3 (BAM)
09-01-2021,09:00,13.66395,R,ugm-3,20.90061,R,ugm-3,41.85171,R,ugm-3,17.000,R,ugm-3 (BAM)
09-01-2021,10:00,17.19115,R,ugm-3,25.94285,R,ugm-3,52.30225,R,ugm-3,13.000,R,ugm-3 (BAM)
09-01-2021,11:00,26.94658,R,ugm-3,29.50845,R,ugm-3,70.82596,R,ugm-3,19.000,R,ugm-3 (BAM)
09-01-2021,12:00,33.46079,R,ugm-3,37.15234,R,ugm-3,88.45816,R,ugm-3,14.000,R,ugm-3 (BAM)
09-01-2021,13:00,31.36353,R,ugm-3,35.61334,R,ugm-3,83.70341,R,ugm-3,16.000,R,ugm-3 (BAM)
09-01-2021,14:00,26.34282,R,ugm-3,32.91063,R,ugm-3,73.30240,R,ugm-3,15.000,R,ugm-3 (BAM)
09-01-2021,15:00,36.06647,R,ugm-3,45.29153,R,ugm-3,100.59268,R,ugm-3,17.000,R,ugm-3 (BAM)
09-01-2021,16:00,25.96150,R,ugm-3,31.81134,R,ugm-3,71.61842,R,ugm-3,16.000,R,ugm-3 (BAM)
09-01-2021,17:00,23.76892,R,ugm-3,30.22039,R,ugm-3,66.66556,R,ugm-3,22.000,R,ugm-3 (BAM)
09-01-2021,18:00,24.15024,R,ugm-3,26.51541,R,ugm-3,63.54525,R,ugm-3,19.000,R,ugm-3 (BAM)
09-01-2021,19:00,16.07897,R,ugm-3,23.58682,R,ugm-3,48.24090,R,ugm-3,22.000,R,ugm-3 (BAM)
09-01-2021,20:00,10.16852,R,ugm-3,18.58325,R,ugm-3,34.17477,R,ugm-3,23.000,R,ugm-3 (BAM)
09-01-2021,21:00,6.32355,R,ugm-3,15.61317,R,ugm-3,25.30914,R,ugm-3,28.000,R,ugm-3 (BAM)
09-01-2021,22:00,4.03563,R,ugm-3,14.66368,R,ugm-3,20.85156,R,ugm-3,25.000,R,ugm-3 (BAM)
09-01-2021,23:00,4.38517,R,ugm-3,13.28573,R,ugm-3,20.00957,R,ugm-3,22.000,R,ugm-3 (BAM)
09-01-2021,24:00,2.51035,R,ugm-3,10.66274,R,ugm-3,14.51189,R,ugm-3,18.000,R,ugm-3 (BAM)
10-01-2021,01:00,1.56134,R,ugm-3,8.47846,R,ugm-3,10.87249,R,ugm-3,14.000,R,ugm-3 (BAM)
10-01-2021,02:00,1.05496,R,ugm-3,7.01452,R,ugm-3,8.63210,R,ugm-3,18.000,R,ugm-3 (BAM)
10-01-2021,03:00,0.88617,R,ugm-3,7.58632,R,ugm-3,8.94509,R,ugm-3,19.000,R,ugm-3 (BAM)
10-01-2021,04:00,0.63298,R,ugm-3,7.28266,R,ugm-3,8.25321,R,ugm-3,19.000,R,ugm-3 (BAM)
10-01-2021,05:00,0.94947,R,ugm-3,7.04449,R,ugm-3,8.50031,R,ugm-3,17.000,R,ugm-3 (BAM)
10-01-2021,06:00,1.13936,R,ugm-3,6.90158,R,ugm-3,8.64857,R,ugm-3,18.000,R,ugm-3 (BAM)
10-01-2021,07:00,2.69015,R,ugm-3,8.77389,R,ugm-3,12.89873,R,ugm-3,15.000,R,ugm-3 (BAM)
10-01-2021,08:00,3.16488,R,ugm-3,10.46757,R,ugm-3,15.32033,R,ugm-3,13.000,R,ugm-3 (BAM)
10-01-2021,09:00,6.67790,R,ugm-3,14.32264,R,ugm-3,24.56194,R,ugm-3,19.000,R,ugm-3 (BAM)
10-01-2021,10:00,10.69730,R,ugm-3,18.58735,R,ugm-3,34.98965,R,ugm-3,22.000,R,ugm-3 (BAM)
10-01-2021,11:00,18.32467,R,ugm-3,24.78240,R,ugm-3,52.87983,R,ugm-3,29.000,R,ugm-3 (BAM)
10-01-2021,12:00,20.95152,R,ugm-3,25.20246,R,ugm-3,57.32767,R,ugm-3,29.000,R,ugm-3 (BAM)
10-01-2021,13:00,16.29914,R,ugm-3,22.35308,R,ugm-3,47.34475,R,ugm-3,32.000,R,ugm-3 (BAM)
10-01-2021,14:00,22.69220,R,ugm-3,28.51331,R,ugm-3,63.30754,R,ugm-3,27.000,R,ugm-3 (BAM)
10-01-2021,15:00,21.77439,R,ugm-3,30.51365,R,ugm-3,63.90058,R,ugm-3,26.000,R,ugm-3 (BAM)
10-01-2021,16:00,34.71876,R,ugm-3,47.28642,R,ugm-3,100.52110,R,ugm-3,30.000,R,ugm-3 (BAM)
10-01-2021,17:00,39.21289,R,ugm-3,54.43091,R,ugm-3,114.55650,R,ugm-3,33.000,R,ugm-3 (BAM)
10-01-2021,18:00,28.73713,R,ugm-3,47.56245,R,ugm-3,91.62543,R,ugm-3,38.000,R,ugm-3 (BAM)
10-01-2021,19:00,52.44209,R,ugm-3,57.76936,R,ugm-3,138.17945,R,ugm-3,49.000,R,ugm-3 (BAM)
10-01-2021,20:00,48.20115,R,ugm-3,60.71378,R,ugm-3,134.62118,R,ugm-3,63.000,R,ugm-3 (BAM)
10-01-2021,21:00,3.22818,R,ugm-3,34.43826,R,ugm-3,39.38806,R,ugm-3,33.000,R,ugm-3 (BAM)
10-01-2021,22:00,1.26595,R,ugm-3,21.97838,R,ugm-3,23.91948,R,ugm-3,32.000,R,ugm-3 (BAM)
10-01-2021,23:00,3.29148,R,ugm-3,21.68958,R,ugm-3,26.73644,R,ugm-3,20.000,R,ugm-3 (BAM)
10-01-2021,24:00,2.62685,R,ugm-3,11.34196,R,ugm-3,15.36975,R,ugm-3,12.000,R,ugm-3 (BAM)
11-01-2021,01:00,0.42028,R,ugm-3,8.03452,R,ugm-3,8.67894,R,ugm-3,10.000,R,ugm-3 (BAM)
11-01-2021,02:00,0.37825,R,ugm-3,6.66891,R,ugm-3,7.24889,R,ugm-3,10.000,R,ugm-3 (BAM)
11-01-2021,03:00,0.63042,R,ugm-3,5.49326,R,ugm-3,6.45989,R,ugm-3,5.000,R,ugm-3 (BAM)
11-01-2021,04:00,0.47282,R,ugm-3,4.35418,R,ugm-3,5.07915,R,ugm-3,5.000,R,ugm-3 (BAM)
11-01-2021,05:00,0.47282,R,ugm-3,4.45281,R,ugm-3,5.17778,R,ugm-3,6.000,R,ugm-3 (BAM)
11-01-2021,06:00,0.53586,R,ugm-3,5.04651,R,ugm-3,5.86815,R,ugm-3,5.000,R,ugm-3 (BAM)
11-01-2021,07:00,0.53586,R,ugm-3,6.03276,R,ugm-3,6.85439,R,ugm-3,8.000,R,ugm-3 (BAM)
11-01-2021,08:00,0.66194,R,ugm-3,8.25573,R,ugm-3,9.27069,R,ugm-3,6.000,R,ugm-3 (BAM)
11-01-2021,09:00,1.26084,R,ugm-3,12.66314,R,ugm-3,14.59640,R,ugm-3,5.000,R,ugm-3 (BAM)
11-01-2021,10:00,1.26084,R,ugm-3,13.74801,R,ugm-3,15.68127,R,ugm-3,5.000,R,ugm-3 (BAM)
11-01-2021,11:00,1.10324,R,ugm-3,11.22818,R,ugm-3,12.91979,R,ugm-3,4.000,R,ugm-3 (BAM)
11-01-2021,12:00,1.29236,R,ugm-3,9.31089,R,ugm-3,11.29249,R,ugm-3,4.000,R,ugm-3 (BAM)
11-01-2021,13:00,2.55320,R,ugm-3,11.66779,R,ugm-3,15.58265,R,ugm-3,7.000,R,ugm-3 (BAM)
11-01-2021,14:00,1.35540,R,ugm-3,12.32090,R,ugm-3,14.39915,R,ugm-3,6.000,R,ugm-3 (BAM)
11-01-2021,15:00,0.81955,R,ugm-3,9.49343,R,ugm-3,10.75005,R,ugm-3,10.000,R,ugm-3 (BAM)
11-01-2021,16:00,0.59890,R,ugm-3,9.78244,R,ugm-3,10.70074,R,ugm-3,7.000,R,ugm-3 (BAM)
11-01-2021,17:00,1.29236,R,ugm-3,12.26962,R,ugm-3,14.25122,R,ugm-3,12.000,R,ugm-3 (BAM)
11-01-2021,18:00,0.72498,R,ugm-3,11.90679,R,ugm-3,13.01841,R,ugm-3,7.000,R,ugm-3 (BAM)
11-01-2021,19:00,0.40977,R,ugm-3,9.87518,R,ugm-3,10.50349,R,ugm-3,5.000,R,ugm-3 (BAM)
11-01-2021,20:00,0.47282,R,ugm-3,8.05259,R,ugm-3,8.77757,R,ugm-3,10.000,R,ugm-3 (BAM)
11-01-2021,21:00,0.31521,R,ugm-3,4.99033,R,ugm-3,5.47365,R,ugm-3,7.000,R,ugm-3 (BAM)
11-01-2021,22:00,0.34673,R,ugm-3,6.32274,R,ugm-3,6.85439,R,ugm-3,6.000,R,ugm-3 (BAM)
11-01-2021,23:00,0.50434,R,ugm-3,5.98246,R,ugm-3,6.75577,R,ugm-3,5.000,R,ugm-3 (BAM)
11-01-2021,24:00,0.50434,R,ugm-3,6.42627,R,ugm-3,7.19958,R,ugm-3,6.000,R,ugm-3 (BAM)
12-01-2021,01:00,0.62787,R,ugm-3,3.82647,R,ugm-3,4.78918,R,ugm-3,6.000,R,ugm-3 (BAM)
12-01-2021,02:00,0.08372,R,ugm-3,2.62706,R,ugm-3,2.75542,R,ugm-3,5.000,R,ugm-3 (BAM)
12-01-2021,03:00,0.65926,R,ugm-3,1.69537,R,ugm-3,2.70622,R,ugm-3,6.000,R,ugm-3 (BAM)
12-01-2021,04:00,0.31393,R,ugm-3,1.58521,R,ugm-3,2.06657,R,ugm-3,7.000,R,ugm-3 (BAM)
12-01-2021,05:00,0.43951,R,ugm-3,2.32754,R,ugm-3,3.00144,R,ugm-3,6.000,R,ugm-3 (BAM)